Location: Mexico
(19.4000°N, 99.1500°W)
Time: 00:48:01
(UTC-06:00)

ISS - Pass Details

Date: 21 July 2017
Orbit: 400 x 408 km, 51.6° (Epoch: 21 July)

Event Time Altitude Azimuth Distance (km) Brightness Sun altitude
Rises 21:33:02 0° 255° (WSW) 2,297 0.5 -28.9°
Reaches altitude 10° 21:35:55 10° 283° (WNW) 1,440 -0.3 -29.4°
Maximum altitude 21:37:36 13° 315° (NW) 1,250 -0.5 -29.7°
Enters shadow 21:38:01 13° 323° (NW) 1,263 -0.5 -29.8°
